Snow/Ice From: 16-12-2017 16:00 Until: 17-12-2017 16:00 warning for: Snow/Ice Level: Yellow info button

Although rather usual in this region, locally or potentially dangerous phenomena are expected. (such as local winds, summer thunderstorms, rising streams or high waves) Be aware and pay attention to the latest weather updates, especially if you carry out activities exposed to weather or close to a stream or shoreline. 


Meteo18 Weather Cam more information Meteo18 Weather Cam


Thunder radar more information blitzortung!


warning for Snow/Ice more information rain snow radar


Visit our other weather sites:

Template documentation
and downloads

And another site



Weather Underground History page Text

Daily Summary for November 13, 2016 Units:  Metric    English   Both
« Previous Day
Next Day »
Daily Weekly Monthly Yearly Custom
  High: Low: Average:
Temperature: 8.9 °C 5.2 °C 7.2 °C
Dew Point: 8.6 °C 4.8 °C 6.6 °C
Humidity: 98 % 94 % 96 %
Wind Speed: 17.7 km/h 0.0 km/h 4.6 km/h
Wind Gust: 25.7 km/h - -
Wind:- - SW
Pressure: 1028.0 hPa 1020.2 hPa -
Precipitation: 2.3 mm    
Historical Graphs
 
 
Tabular Data for November 13, 2016
Time Temperature Dew Point Pressure Wind Wind Speed Wind Gust Humidity Rainfall Rate (Hourly)
00:02 5.2 °C 4.8 °C 1021.2 hPa SSE 3.2 km/h 6.4 km/h 97 % 1.0 mm
00:07 5.2 °C 4.8 °C 1021.2 hPa Calm   6.4 km/h 97 % 1.0 mm
00:12 5.3 °C 4.9 °C 1021.2 hPa SSE 3.2 km/h 6.4 km/h 97 % 0.8 mm
00:17 5.3 °C 4.9 °C 1021.2 hPa SSE 1.6 km/h 6.4 km/h 97 % 0.8 mm
00:22 5.3 °C 4.9 °C 1021.2 hPa SE 1.6 km/h 4.8 km/h 97 % 0.8 mm
00:27 5.3 °C 4.9 °C 1021.2 hPa SSW 1.6 km/h 8.0 km/h 97 % 0.8 mm
00:37 5.4 °C 5.0 °C 1021.2 hPa Calm   4.8 km/h 97 % 0.5 mm
00:47 5.3 °C 4.9 °C 1021.2 hPa Calm   6.4 km/h 97 % 0.5 mm
00:52 5.3 °C 4.9 °C 1021.2 hPa South 1.6 km/h 6.4 km/h 97 % 0.5 mm
00:57 5.3 °C 4.9 °C 1021.2 hPa South 1.6 km/h 6.4 km/h 97 % 0.3 mm
01:02 5.3 °C 4.9 °C 1021.2 hPa SSE 1.6 km/h 4.8 km/h 97 % 0.3 mm
01:12 5.3 °C 4.9 °C 1021.2 hPa SW 1.6 km/h 4.8 km/h 97 % 0.3 mm
01:17 5.3 °C 4.9 °C 1021.2 hPa SSE 1.6 km/h 4.8 km/h 97 % 0.3 mm
01:32 5.4 °C 5.0 °C 1021.2 hPa South 1.6 km/h 8.0 km/h 97 % 0.5 mm
01:37 5.4 °C 5.0 °C 1020.9 hPa SW 3.2 km/h 8.0 km/h 97 % 0.5 mm
01:42 5.4 °C 5.0 °C 1021.2 hPa Calm   8.0 km/h 97 % 0.5 mm
01:47 5.4 °C 5.0 °C 1020.9 hPa SSE 3.2 km/h 8.0 km/h 97 % 0.5 mm
01:52 5.4 °C 5.0 °C 1020.9 hPa South 3.2 km/h 8.0 km/h 97 % 0.3 mm
01:57 5.5 °C 5.1 °C 1020.9 hPa SSW 1.6 km/h 8.0 km/h 97 % 0.3 mm
02:02 5.5 °C 5.1 °C 1020.9 hPa SSW 3.2 km/h 8.0 km/h 97 % 0.5 mm
02:07 5.6 °C 5.2 °C 1020.9 hPa South 3.2 km/h 4.8 km/h 97 % 0.5 mm
02:12 5.6 °C 5.2 °C 1020.9 hPa South 1.6 km/h 9.7 km/h 97 % 0.5 mm
02:17 5.6 °C 5.2 °C 1020.9 hPa SSE 3.2 km/h 9.7 km/h 97 % 0.5 mm
02:22 5.6 °C 5.2 °C 1020.9 hPa SSW 4.8 km/h 9.7 km/h 97 % 0.3 mm
02:32 5.6 °C 5.2 °C 1020.9 hPa SSE 1.6 km/h 8.0 km/h 97 % 0.3 mm
02:37 5.6 °C 5.2 °C 1020.9 hPa South 1.6 km/h 8.0 km/h 97 % 0.3 mm
02:42 5.6 °C 5.2 °C 1020.9 hPa Calm   6.4 km/h 97 % 0.5 mm
02:47 5.6 °C 5.2 °C 1020.9 hPa SSE 1.6 km/h 6.4 km/h 97 % 0.5 mm
02:52 5.6 °C 5.2 °C 1020.9 hPa Calm   6.4 km/h 97 % 0.5 mm
02:57 5.6 °C 5.2 °C 1020.9 hPa SSE 1.6 km/h 6.4 km/h 97 % 0.5 mm
03:02 5.6 °C 5.2 °C 1020.9 hPa South 3.2 km/h 6.4 km/h 97 % 0.3 mm
03:17 5.6 °C 5.2 °C 1020.9 hPa South 4.8 km/h 8.0 km/h 97 % 0.3 mm
03:37 5.7 °C 5.3 °C 1020.5 hPa South 1.6 km/h 8.0 km/h 97 % 0.3 mm
03:47 5.7 °C 5.3 °C 1020.5 hPa SW 3.2 km/h 4.8 km/h 97 % 0.5 mm
03:52 5.7 °C 5.3 °C 1020.5 hPa South 3.2 km/h 6.4 km/h 97 % 0.5 mm
03:57 5.7 °C 5.3 °C 1020.5 hPa Calm   6.4 km/h 97 % 0.5 mm
04:02 5.7 °C 5.3 °C 1020.5 hPa SSE 1.6 km/h 6.4 km/h 97 % 0.5 mm
04:07 5.7 °C 5.4 °C 1020.5 hPa SSE 1.6 km/h 4.8 km/h 98 % 0.5 mm
04:17 5.7 °C 5.4 °C 1020.2 hPa SSE 1.6 km/h 6.4 km/h 98 % 0.5 mm
04:22 5.8 °C 5.5 °C 1020.2 hPa Calm   8.0 km/h 98 % 0.3 mm
04:32 5.8 °C 5.5 °C 1020.2 hPa SSE 1.6 km/h 8.0 km/h 98 % 0.5 mm
04:37 5.8 °C 5.5 °C 1020.2 hPa SSW 3.2 km/h 4.8 km/h 98 % 0.5 mm
04:42 5.8 °C 5.5 °C 1020.5 hPa SSE 1.6 km/h 4.8 km/h 98 % 0.5 mm
04:47 5.8 °C 5.5 °C 1020.5 hPa South 1.6 km/h 4.8 km/h 98 % 0.3 mm
04:52 5.8 °C 5.5 °C 1020.5 hPa Calm   4.8 km/h 98 % 0.3 mm
04:57 5.8 °C 5.5 °C 1020.5 hPa Calm   3.2 km/h 98 % 0.3 mm
05:02 5.9 °C 5.6 °C 1020.5 hPa SSE 3.2 km/h 3.2 km/h 98 % 0.3 mm
05:07 5.9 °C 5.6 °C 1020.5 hPa SE 1.6 km/h 4.8 km/h 98 % 0.3 mm
05:12 5.9 °C 5.6 °C 1020.5 hPa Calm   4.8 km/h 98 % 0.3 mm
05:17 5.9 °C 5.6 °C 1020.5 hPa Calm   4.8 km/h 98 % 0.3 mm
05:22 5.9 °C 5.6 °C 1020.5 hPa SSW 4.8 km/h 4.8 km/h 98 % 0.3 mm
05:32 6.0 °C 5.7 °C 1020.5 hPa SSE 1.6 km/h 4.8 km/h 98 % 0.0 mm
05:37 6.0 °C 5.7 °C 1020.5 hPa Calm   4.8 km/h 98 % 0.3 mm
05:42 6.0 °C 5.7 °C 1020.5 hPa Calm   4.8 km/h 98 % 0.3 mm
05:47 6.0 °C 5.7 °C 1020.5 hPa Calm   4.8 km/h 98 % 0.3 mm
05:52 6.0 °C 5.7 °C 1020.5 hPa Calm   4.8 km/h 98 % 0.3 mm
06:02 6.1 °C 5.8 °C 1020.5 hPa Calm   3.2 km/h 98 % 0.3 mm
06:07 6.1 °C 5.8 °C 1020.5 hPa Calm   3.2 km/h 98 % 0.3 mm
06:12 6.1 °C 5.8 °C 1020.5 hPa Calm   3.2 km/h 98 % 0.3 mm
06:17 6.1 °C 5.8 °C 1020.5 hPa Calm   1.6 km/h 98 % 0.5 mm
06:22 6.1 °C 5.8 °C 1020.5 hPa Calm   3.2 km/h 98 % 0.5 mm
06:27 6.1 °C 5.8 °C 1020.5 hPa South 1.6 km/h 3.2 km/h 98 % 0.5 mm
06:32 6.1 °C 5.8 °C 1020.5 hPa Calm   3.2 km/h 98 % 0.5 mm
06:37 6.1 °C 5.8 °C 1020.5 hPa SE 1.6 km/h 3.2 km/h 98 % 0.5 mm
06:42 6.1 °C 5.8 °C 1020.5 hPa Calm   1.6 km/h 98 % 0.3 mm
06:47 6.2 °C 5.9 °C 1020.9 hPa Calm   1.6 km/h 98 % 0.3 mm
07:02 6.2 °C 5.9 °C 1020.5 hPa Calm   1.6 km/h 98 % 0.3 mm
07:07 6.2 °C 5.9 °C 1020.5 hPa Calm   1.6 km/h 98 % 0.0 mm
07:12 6.2 °C 5.9 °C 1020.5 hPa Calm   1.6 km/h 98 % 0.0 mm
07:17 6.2 °C 5.9 °C 1020.9 hPa Calm     98 % 0.0 mm
07:22 6.3 °C 6.0 °C 1020.9 hPa Calm     98 % 0.0 mm
07:32 6.3 °C 6.0 °C 1020.9 hPa Calm     98 % 0.0 mm
07:37 6.3 °C 6.0 °C 1020.9 hPa Calm     98 % 0.0 mm
07:42 6.3 °C 6.0 °C 1020.9 hPa Calm     98 % 0.0 mm
07:47 6.3 °C 6.0 °C 1020.9 hPa Calm     98 % 0.3 mm
07:52 6.3 °C 6.0 °C 1020.9 hPa Calm     98 % 0.3 mm
07:57 6.3 °C 6.0 °C 1020.9 hPa Calm     98 % 0.3 mm
08:02 6.4 °C 6.1 °C 1020.9 hPa Calm     98 % 0.3 mm
08:07 6.4 °C 6.1 °C 1021.2 hPa Calm     98 % 0.3 mm
08:12 6.4 °C 6.1 °C 1021.2 hPa Calm     98 % 0.3 mm
08:17 6.5 °C 6.2 °C 1021.2 hPa SSW 1.6 km/h   98 % 0.3 mm
08:27 6.5 °C 6.2 °C 1021.2 hPa Calm   3.2 km/h 98 % 0.3 mm
08:32 6.6 °C 6.3 °C 1021.2 hPa Calm   3.2 km/h 98 % 0.3 mm
08:37 6.6 °C 6.3 °C 1021.2 hPa Calm   3.2 km/h 98 % 0.3 mm
08:42 6.6 °C 6.3 °C 1021.2 hPa Calm   1.6 km/h 98 % 0.3 mm
08:47 6.6 °C 6.3 °C 1021.2 hPa Calm   1.6 km/h 98 % 0.0 mm
08:52 6.7 °C 6.4 °C 1021.6 hPa Calm   1.6 km/h 98 % 0.0 mm
08:57 6.7 °C 6.4 °C 1021.6 hPa Calm   1.6 km/h 98 % 0.0 mm
09:02 6.7 °C 6.4 °C 1021.6 hPa Calm     98 % 0.0 mm
09:07 6.8 °C 6.5 °C 1021.6 hPa Calm     98 % 0.0 mm
09:17 6.8 °C 6.5 °C 1021.9 hPa Calm     98 % 0.0 mm
09:22 6.8 °C 6.5 °C 1021.9 hPa Calm     98 % 0.0 mm
09:27 6.8 °C 6.5 °C 1021.9 hPa Calm     98 % 0.0 mm
09:32 6.8 °C 6.5 °C 1021.9 hPa Calm     98 % 0.0 mm
09:37 6.9 °C 6.6 °C 1021.9 hPa Calm     98 % 0.3 mm
09:42 6.9 °C 6.6 °C 1021.9 hPa Calm     98 % 0.3 mm
09:52 7.0 °C 6.7 °C 1021.9 hPa Calm     98 % 0.3 mm
10:02 7.1 °C 6.8 °C 1021.9 hPa Calm     98 % 0.3 mm
10:07 7.1 °C 6.8 °C 1022.2 hPa Calm     98 % 0.3 mm
10:12 7.2 °C 6.9 °C 1022.2 hPa Calm     98 % 0.3 mm
10:22 7.3 °C 7.0 °C 1022.2 hPa Calm     98 % 0.3 mm
10:27 7.4 °C 7.1 °C 1022.2 hPa Calm     98 % 0.5 mm
10:32 7.5 °C 7.2 °C 1022.2 hPa Calm     98 % 0.5 mm
10:42 7.5 °C 7.2 °C 1022.2 hPa Calm     98 % 0.3 mm
10:47 7.6 °C 7.3 °C 1022.2 hPa Calm     98 % 0.3 mm
10:52 7.7 °C 7.4 °C 1022.6 hPa Calm     98 % 0.3 mm
10:57 7.8 °C 7.5 °C 1022.6 hPa Calm     98 % 0.3 mm
11:02 7.8 °C 7.5 °C 1022.6 hPa Calm     98 % 0.3 mm
11:07 8.1 °C 7.8 °C 1022.6 hPa Calm     98 % 0.3 mm
11:12 8.3 °C 8.0 °C 1022.6 hPa Calm     98 % 0.3 mm
11:17 8.3 °C 8.0 °C 1022.6 hPa Calm     98 % 0.3 mm
11:22 8.4 °C 8.1 °C 1022.9 hPa NNE 1.6 km/h   98 % 0.3 mm
11:27 8.6 °C 8.3 °C 1022.9 hPa NNE 1.6 km/h   98 % 0.0 mm
11:32 8.6 °C 8.3 °C 1022.9 hPa Calm   4.8 km/h 98 % 0.0 mm
11:37 8.7 °C 8.4 °C 1022.9 hPa NW 4.8 km/h 6.4 km/h 98 % 0.0 mm
11:42 8.7 °C 8.4 °C 1022.9 hPa North 11.3 km/h 11.3 km/h 98 % 0.0 mm
11:52 8.8 °C 8.5 °C 1022.9 hPa NE 4.8 km/h 22.5 km/h 98 % 0.0 mm
11:57 8.9 °C 8.6 °C 1022.9 hPa NNE 9.7 km/h 22.5 km/h 98 % 0.0 mm
12:02 8.9 °C 8.4 °C 1022.9 hPa NNW 9.7 km/h 20.9 km/h 97 % 0.0 mm
12:12 8.9 °C 8.4 °C 1022.9 hPa North 4.8 km/h 20.9 km/h 97 % 0.0 mm
12:17 8.8 °C 8.3 °C 1022.9 hPa NNW 14.5 km/h 20.9 km/h 97 % 0.0 mm
12:22 8.8 °C 8.2 °C 1022.9 hPa NNW 9.7 km/h 17.7 km/h 96 % 0.0 mm
12:32 8.8 °C 8.0 °C 1022.9 hPa NNE 14.5 km/h 17.7 km/h 95 % 0.0 mm
12:52 8.8 °C 8.0 °C 1023.2 hPa NNW 8.0 km/h 19.3 km/h 95 % 0.0 mm
12:57 8.8 °C 7.9 °C 1023.2 hPa NNW 9.7 km/h 17.7 km/h 94 % 0.0 mm
13:02 8.7 °C 7.8 °C 1023.2 hPa North 16.1 km/h 19.3 km/h 94 % 0.0 mm
13:12 8.5 °C 7.6 °C 1023.2 hPa NNW 17.7 km/h 22.5 km/h 94 % 0.0 mm
13:22 8.3 °C 7.5 °C 1023.2 hPa NNW 9.7 km/h 20.9 km/h 95 % 0.0 mm
13:32 8.2 °C 7.4 °C 1023.2 hPa NNW 8.0 km/h 20.9 km/h 95 % 0.0 mm
13:37 8.1 °C 7.3 °C 1023.2 hPa NNW 16.1 km/h 22.5 km/h 95 % 0.0 mm
13:42 8.1 °C 7.3 °C 1023.2 hPa North 11.3 km/h 22.5 km/h 95 % 0.0 mm
13:52 8.1 °C 7.5 °C 1023.6 hPa North 8.0 km/h 24.1 km/h 96 % 0.0 mm
14:02 8.1 °C 7.5 °C 1023.2 hPa NNW 12.9 km/h 20.9 km/h 96 % 0.0 mm
14:12 8.0 °C 7.4 °C 1023.6 hPa NNW 9.7 km/h 22.5 km/h 96 % 0.0 mm
14:17 8.1 °C 7.5 °C 1023.6 hPa North 9.7 km/h 22.5 km/h 96 % 0.0 mm
14:22 8.2 °C 7.4 °C 1023.6 hPa NE 11.3 km/h 22.5 km/h 95 % 0.0 mm
14:27 8.2 °C 7.4 °C 1023.6 hPa NE 8.0 km/h 20.9 km/h 95 % 0.0 mm
14:32 8.1 °C 7.3 °C 1023.6 hPa North 12.9 km/h 19.3 km/h 95 % 0.0 mm
14:37 8.1 °C 7.3 °C 1023.6 hPa NNW 9.7 km/h 17.7 km/h 95 % 0.0 mm
14:42 8.1 °C 7.3 °C 1023.6 hPa NNW 3.2 km/h 17.7 km/h 95 % 0.0 mm
14:47 8.1 °C 7.3 °C 1023.6 hPa NNW 8.0 km/h 17.7 km/h 95 % 0.0 mm
14:52 8.1 °C 7.3 °C 1023.6 hPa North 8.0 km/h 14.5 km/h 95 % 0.0 mm
14:57 8.1 °C 7.3 °C 1023.6 hPa NNW 8.0 km/h 12.9 km/h 95 % 0.0 mm
15:07 8.1 °C 7.3 °C 1023.9 hPa NW 8.0 km/h 12.9 km/h 95 % 0.0 mm
15:12 8.2 °C 7.4 °C 1023.9 hPa NNW 4.8 km/h 14.5 km/h 95 % 0.0 mm
15:22 8.2 °C 7.4 °C 1024.3 hPa NW 4.8 km/h 16.1 km/h 95 % 0.0 mm
15:27 8.2 °C 7.4 °C 1024.3 hPa NNW 6.4 km/h 14.5 km/h 95 % 0.0 mm
15:32 8.1 °C 7.3 °C 1024.3 hPa NW 8.0 km/h 12.9 km/h 95 % 0.0 mm
15:37 8.1 °C 7.3 °C 1024.3 hPa NNE 8.0 km/h 14.5 km/h 95 % 0.0 mm
15:47 8.1 °C 7.3 °C 1024.6 hPa WNW 1.6 km/h 14.5 km/h 95 % 0.0 mm
15:52 8.1 °C 7.3 °C 1024.6 hPa NW 9.7 km/h 14.5 km/h 95 % 0.0 mm
15:57 8.1 °C 7.3 °C 1024.6 hPa North 6.4 km/h 11.3 km/h 95 % 0.0 mm
16:02 8.2 °C 7.4 °C 1024.6 hPa WNW 6.4 km/h 14.5 km/h 95 % 0.0 mm
16:07 8.2 °C 7.4 °C 1024.9 hPa NNW 3.2 km/h 14.5 km/h 95 % 0.0 mm
16:17 8.3 °C 7.4 °C 1024.9 hPa NNW 9.7 km/h 17.7 km/h 94 % 0.0 mm
16:22 8.3 °C 7.4 °C 1024.9 hPa North 11.3 km/h 20.9 km/h 94 % 0.0 mm
16:27 8.2 °C 7.3 °C 1024.9 hPa NE 6.4 km/h 20.9 km/h 94 % 0.0 mm
16:32 8.2 °C 7.4 °C 1024.9 hPa NNE 9.7 km/h 20.9 km/h 95 % 0.0 mm
16:42 8.2 °C 7.4 °C 1024.9 hPa North 9.7 km/h 22.5 km/h 95 % 0.0 mm
16:47 8.1 °C 7.3 °C 1025.3 hPa NW 3.2 km/h 22.5 km/h 95 % 0.0 mm
16:57 8.1 °C 7.3 °C 1025.3 hPa NNW 9.7 km/h 16.1 km/h 95 % 0.0 mm
17:07 8.1 °C 7.3 °C 1025.3 hPa NW 3.2 km/h 16.1 km/h 95 % 0.0 mm
17:12 8.0 °C 7.2 °C 1025.3 hPa NNW 4.8 km/h 16.1 km/h 95 % 0.0 mm
17:17 8.0 °C 7.2 °C 1025.3 hPa NNW 4.8 km/h 16.1 km/h 95 % 0.0 mm
17:22 8.0 °C 7.2 °C 1025.3 hPa NW 6.4 km/h 16.1 km/h 95 % 0.0 mm
17:27 8.0 °C 7.2 °C 1025.6 hPa NNE 12.9 km/h 17.7 km/h 95 % 0.0 mm
17:32 8.0 °C 7.2 °C 1025.6 hPa NNW 8.0 km/h 17.7 km/h 95 % 0.0 mm
17:42 7.9 °C 7.1 °C 1025.6 hPa West 4.8 km/h 16.1 km/h 95 % 0.0 mm
17:52 7.9 °C 7.1 °C 1026.0 hPa NW 6.4 km/h 16.1 km/h 95 % 0.0 mm
18:07 7.9 °C 7.1 °C 1026.0 hPa NW 6.4 km/h 17.7 km/h 95 % 0.0 mm
18:17 7.9 °C 7.3 °C 1026.0 hPa NNW 6.4 km/h 17.7 km/h 96 % 0.0 mm
18:22 7.9 °C 7.3 °C 1026.0 hPa North 6.4 km/h 17.7 km/h 96 % 0.0 mm
18:32 7.9 °C 7.3 °C 1026.0 hPa NNW 4.8 km/h 16.1 km/h 96 % 0.0 mm
18:37 7.9 °C 7.3 °C 1026.3 hPa NW 6.4 km/h 17.7 km/h 96 % 0.0 mm
18:42 7.9 °C 7.3 °C 1026.3 hPa North 6.4 km/h 17.7 km/h 96 % 0.0 mm
18:52 7.9 °C 7.1 °C 1026.3 hPa NW 4.8 km/h 11.3 km/h 95 % 0.0 mm
18:57 7.9 °C 7.1 °C 1026.3 hPa NNE 4.8 km/h 12.9 km/h 95 % 0.0 mm
19:02 7.9 °C 7.1 °C 1026.3 hPa NNW 8.0 km/h 12.9 km/h 95 % 0.0 mm
19:07 7.9 °C 7.1 °C 1026.3 hPa NNE 3.2 km/h 14.5 km/h 95 % 0.0 mm
19:12 7.9 °C 7.1 °C 1026.3 hPa North 8.0 km/h 14.5 km/h 95 % 0.0 mm
19:22 8.0 °C 7.2 °C 1026.6 hPa NNW 6.4 km/h 17.7 km/h 95 % 0.0 mm
19:27 8.1 °C 7.3 °C 1026.6 hPa NNW 9.7 km/h 17.7 km/h 95 % 0.0 mm
19:37 8.1 °C 7.2 °C 1026.6 hPa NNW 6.4 km/h 20.9 km/h 94 % 0.0 mm
19:42 8.1 °C 7.2 °C 1026.6 hPa NNW 9.7 km/h 20.9 km/h 94 % 0.0 mm
19:47 8.1 °C 7.2 °C 1026.6 hPa North 8.0 km/h 19.3 km/h 94 % 0.0 mm
19:52 8.1 °C 7.2 °C 1026.6 hPa North 11.3 km/h 19.3 km/h 94 % 0.0 mm
20:02 8.1 °C 7.2 °C 1027.0 hPa NNW 9.7 km/h 19.3 km/h 94 % 0.0 mm
20:07 8.1 °C 7.2 °C 1026.6 hPa NNE 17.7 km/h 22.5 km/h 94 % 0.0 mm
20:12 8.1 °C 7.3 °C 1026.6 hPa NNW 12.9 km/h 22.5 km/h 95 % 0.0 mm
20:22 8.1 °C 7.3 °C 1027.0 hPa NW 11.3 km/h 24.1 km/h 95 % 0.0 mm
20:32 8.1 °C 7.3 °C 1027.0 hPa NNE 11.3 km/h 20.9 km/h 95 % 0.0 mm
20:37 8.2 °C 7.4 °C 1027.0 hPa North 14.5 km/h 24.1 km/h 95 % 0.0 mm
20:42 8.1 °C 7.3 °C 1027.0 hPa North 8.0 km/h 24.1 km/h 95 % 0.0 mm
20:52 8.2 °C 7.4 °C 1027.0 hPa NNW 6.4 km/h 19.3 km/h 95 % 0.0 mm
21:02 8.1 °C 7.3 °C 1027.3 hPa North 4.8 km/h 19.3 km/h 95 % 0.0 mm
21:07 8.1 °C 7.3 °C 1027.0 hPa NW 4.8 km/h 19.3 km/h 95 % 0.0 mm
21:12 8.1 °C 7.3 °C 1027.3 hPa NNW 4.8 km/h 17.7 km/h 95 % 0.0 mm
21:17 8.1 °C 7.3 °C 1027.3 hPa NNE 11.3 km/h 14.5 km/h 95 % 0.0 mm
21:22 8.2 °C 7.4 °C 1027.3 hPa NW 6.4 km/h 14.5 km/h 95 % 0.0 mm
21:27 8.2 °C 7.4 °C 1027.3 hPa NNW 8.0 km/h 16.1 km/h 95 % 0.0 mm
21:37 8.2 °C 7.4 °C 1027.7 hPa NNW 9.7 km/h 16.1 km/h 95 % 0.0 mm
21:42 8.3 °C 7.5 °C 1027.7 hPa NNW 17.7 km/h 17.7 km/h 95 % 0.0 mm
21:47 8.3 °C 7.5 °C 1027.7 hPa NW 8.0 km/h 19.3 km/h 95 % 0.0 mm
21:57 8.3 °C 7.5 °C 1027.7 hPa North 6.4 km/h 19.3 km/h 95 % 0.0 mm
22:02 8.3 °C 7.5 °C 1027.7 hPa NNW 4.8 km/h 16.1 km/h 95 % 0.0 mm
22:12 8.4 °C 7.6 °C 1027.7 hPa NNW 3.2 km/h 19.3 km/h 95 % 0.0 mm
22:17 8.4 °C 7.6 °C 1027.7 hPa NNW 8.0 km/h 19.3 km/h 95 % 0.0 mm
22:22 8.4 °C 7.6 °C 1027.7 hPa NW 4.8 km/h 14.5 km/h 95 % 0.0 mm
22:32 8.4 °C 7.5 °C 1027.7 hPa NNW 4.8 km/h 12.9 km/h 94 % 0.0 mm
22:37 8.4 °C 7.5 °C 1027.7 hPa NNW 11.3 km/h 12.9 km/h 94 % 0.0 mm
22:42 8.4 °C 7.5 °C 1027.7 hPa North 8.0 km/h 12.9 km/h 94 % 0.0 mm
22:52 8.4 °C 7.5 °C 1027.7 hPa NW 6.4 km/h 12.9 km/h 94 % 0.0 mm
23:02 8.4 °C 7.5 °C 1027.7 hPa NNW 4.8 km/h 17.7 km/h 94 % 0.0 mm
23:07 8.4 °C 7.5 °C 1027.7 hPa North 8.0 km/h 17.7 km/h 94 % 0.0 mm
23:12 8.4 °C 7.5 °C 1027.7 hPa NNE 11.3 km/h 17.7 km/h 94 % 0.0 mm
23:17 8.3 °C 7.4 °C 1027.7 hPa NNE 9.7 km/h 20.9 km/h 94 % 0.0 mm
23:22 8.3 °C 7.4 °C 1027.7 hPa North 8.0 km/h 20.9 km/h 94 % 0.0 mm
23:32 8.2 °C 7.3 °C 1027.7 hPa NNE 16.1 km/h 17.7 km/h 94 % 0.0 mm
23:37 8.2 °C 7.3 °C 1027.7 hPa North 14.5 km/h 20.9 km/h 94 % 0.0 mm
23:42 8.2 °C 7.3 °C 1027.7 hPa NNE 11.3 km/h 20.9 km/h 94 % 0.0 mm
23:47 8.2 °C 7.3 °C 1028.0 hPa North 16.1 km/h 20.9 km/h 94 % 0.0 mm
23:52 8.2 °C 7.3 °C 1028.0 hPa North 6.4 km/h 25.7 km/h 94 % 0.0 mm
23:57 8.1 °C 7.2 °C 1028.0 hPa NNW 6.4 km/h 25.7 km/h 94 % 0.0 mm
Meteo18
Compliments of Weather Underground - 4 mb

Script developed by  Jim McMurry - jmcmurry@mwt.net Adapted for the template by  Wim van der Kuil - Leuven-Template.eu

You find our weather info also at:

European Weather Network

Weather Underground

Equipment we use:

Weather-station
Davis Vue

Weather-program
Meteohub

Weather-server
Raspberry PI 2 B+

Provider
1 and 1

Davis Vue

Meteohub

Raspberry PI 2 B+

1 and 1